Location: Bois de la Silve
(44.4667°N, 6.7833°E)
Time: 23:52:41
(UTC+00:00)

USA 238 DEB - Pass Details

Date: 27 October 2020
Orbit: 1001 x 1211 km, 63.5° (Epoch: 22 November)

Event Time Altitude Azimuth Distance (km) Brightness Sun altitude
Exits shadow 01:36:38 20° 69° (ENE) 2,220 5.7 -46.6°
Drops below altitude 10° 01:38:59 10° 54° (NE) 2,885 6.5 -46.2°
Sets 01:41:59 0° 45° (NE) 3,877 7.4 -45.8°
